GFSCGP_sfc_rhum_231.txt.gz
RH
77 87 82 68 62 67 70 71 74 58 47 52 48 42 35 28 28 29 24 27 28 31 33 58 64 65 67 75 80 77 79 77 75 77 71 75 85 83 82 77 76 74 74 81
82 77 62 59 61 67 72 80 78 60 52 51 56 54 43 35 31 28 27 24 28 36 39 41 65 73 71 78 80 82 78 79 75 72 67 66 84 87 79 79 78 74 77 84
81 68 60 63 66 69 69 75 72 72 62 58 60 64 54 37 36 31 26 23 21 28 39 36 63 78 76 79 81 82 82 80 75 74 75 77 76 82 86 88 79 77 76 76
78 56 61 61 59 60 64 67 66 71 82 90 61 93 63 44 32 34 31 29 24 21 20 22 50 82 87 81 78 76 82 83 81 78 78 79 74 73 73 77 78 73 76 74
81 80 86 69 66 55 69 71 75 75 80 79 80 93 65 43 38 35 33 28 27 26 25 24 22 54 80 83 89 82 81 83 83 85 84 83 85 79 70 76 86 79 78 76
90 76 75 69 71 72 68 74 80 71 82 100 76 84 71 49 50 67 62 58 54 43 45 41 34 27 46 81 84 85 84 84 83 86 87 87 84 82 82 80 84 86 79 79
81 86 80 73 87 73 82 91 98 93 95 88 61 81 68 69 71 72 73 71 66 59 56 57 59 59 46 45 87 86 84 84 83 87 87 87 86 84 82 84 79 84 87 83
94 88 82 73 80 90 99 99 95 96 97 92 69 71 69 74 70 73 72 74 74 74 67 64 62 72 82 84 83 89 85 83 84 85 87 86 87 86 84 79 76 78 81 82
97 91 72 82 83 87 98 98 89 98 95 98 81 54 76 71 74 79 79 76 79 82 75 72 72 72 78 84 86 84 86 82 79 84 84 85 84 83 83 80 79 77 79 81
95 97 88 86 83 92 99 87 91 96 98 96 87 77 88 90 90 83 82 80 78 82 79 81 78 79 77 82 86 88 85 86 80 80 80 80 84 84 83 84 84 80 77 78
100 100 83 91 96 98 96 94 89 84 93 97 99 86 90 96 95 96 88 94 94 93 94 89 81 77 80 82 81 88 95 96 94 88 85 83 85 85 84 81 87 85 86 80
99 99 98 85 98 75 86 97 99 98 93 94 96 94 96 84 86 95 97 95 93 94 96 93 87 86 82 85 85 88 87 91 92 92 94 87 84 84 86 87 86 88 89 94
84 98 97 79 86 81 98 82 83 90 98 96 97 90 84 85 91 91 98 97 95 94 96 92 85 94 91 88 88 85 86 89 85 85 90 92 92 92 93 93 92 95 94 90
83 98 96 97 95 98 97 94 88 98 99 98 97 96 89 92 96 96 98 98 99 100 100 98 93 95 96 93 89 86 86 84 86 85 86 90 90 89 92 91 92 94 96 96
78 99 97 92 92 88 96 97 97 98 90 98 96 97 98 99 99 100 100 99 99 98 99 99 99 99 97 95 90 85 84 84 82 84 89 89 87 86 86 88 90 89 89 90
72 98 92 95 94 90 95 93 96 98 89 98 98 98 100 99 99 93 96 98 97 96 98 97 97 97 98 96 92 84 85 85 82 85 90 87 88 86 88 88 89 89 89 90
82 80 95 93 99 99 97 94 93 91 86 97 97 98 100 100 91 88 87 93 96 92 90 94 93 96 96 96 93 89 88 88 85 88 88 90 89 91 92 90 90 92 91 91
86 90 97 97 94 98 76 90 92 96 89 93 98 99 97 96 81 70 69 76 80 89 89 89 89 85 85 83 85 86 86 85 88 88 89 92 94 94 95 95 96 95 94 95
75 84 95 98 94 83 88 96 97 94 90 88 93 95 94 92 80 69 66 70 70 74 84 91 92 89 83 83 83 80 81 84 86 92 93 93 95 96 96 97 98 96 97 96
79 85 83 98 98 95 76 91 81 84 95 96 93 80 74 66 74 78 73 71 72 71 78 83 84 83 85 87 85 83 87 86 90 92 94 92 94 94 96 97 96 95 96 96
96 94 93 99 90 80 80 91 88 91 77 88 84 71 74 68 68 70 69 74 76 76 85 85 89 89 92 90 88 88 87 91 91 92 91 90 92 93 93 92 92 93 94 96
87 99 99 96 89 94 82 92 88 74 84 82 76 76 76 72 73 72 70 73 75 77 88 89 91 91 93 91 88 88 89 90 92 94 91 91 92 92 92 91 91 92 95 93
68 70 84 78 79 72 81 77 80 80 76 78 80 79 76 75 74 72 74 74 77 79 82 93 96 95 94 95 95 94 94 94 94 93 92 92 92 93 93 94 91 90 88 89
66 80 90 68 56 79 79 78 79 80 78 77 78 80 79 72 72 74 79 82 84 90 92 97 99 99 98 97 95 97 96 96 96 96 94 93 93 94 90 90 87 88 91 91
74 85 84 86 76 82 72 82 75 81 76 76 80 79 76 76 77 76 84 85 87 94 96 99 96 99 99 97 96 96 96 96 96 97 95 95 95 95 91 89 92 89 88 88
88 78 66 46 48 35 32 63 79 82 78 77 81 78 78 76 77 85 90 93 96 97 96 98 98 97 98 97 97 96 96 97 98 94 96 96 94 89 87 87 88 79 76 77

GFSCGP_sfc_rhum_234.txt.gz
RH
78 82 89 80 73 74 77 83 82 67 53 61 61 60 50 39 36 36 33 29 25 28 29 46 70 82 83 81 82 77 80 75 68 80 82 82 86 90 86 80 76 73 75 81
80 86 73 68 66 70 75 82 83 68 59 58 62 58 50 45 41 35 33 30 28 24 31 39 65 81 84 84 81 84 78 82 72 67 74 72 75 86 80 81 79 73 78 83
84 65 60 65 65 63 72 81 82 82 70 63 58 54 55 42 35 35 34 32 29 26 24 30 39 78 89 92 88 88 84 80 78 73 69 77 78 85 84 87 81 78 76 78
84 67 70 72 58 69 81 73 73 76 87 93 66 81 56 49 49 58 58 56 55 50 47 43 36 44 87 90 90 85 85 88 86 84 83 79 82 75 76 76 78 77 78 74
82 84 80 79 80 73 80 75 79 82 82 87 76 90 60 49 56 71 66 63 64 62 59 60 57 52 45 64 95 93 93 93 89 87 84 84 80 75 71 78 80 77 80 77
90 79 82 80 76 78 73 77 74 77 84 94 73 82 73 94 91 82 76 73 71 72 71 65 60 62 71 71 76 92 94 93 93 91 88 89 85 83 94 95 91 84 80 80
76 81 84 77 83 75 88 87 95 92 94 88 71 81 83 86 86 86 85 82 76 72 75 75 74 74 72 76 79 79 86 94 92 94 92 89 86 86 90 88 86 87 82 77
93 81 84 77 87 93 92 90 94 100 99 94 70 72 95 78 77 76 74 72 70 72 74 72 72 78 79 77 80 84 85 84 91 93 90 87 87 86 81 85 82 82 82 78
97 89 71 85 86 91 92 96 92 97 96 97 81 71 85 69 76 76 75 73 78 74 80 79 77 70 79 82 83 86 91 91 86 90 87 85 85 86 85 80 80 82 80 81
92 96 86 88 86 92 95 86 96 94 94 97 89 85 89 88 86 83 79 90 88 84 80 86 77 76 79 78 78 81 84 86 95 87 88 86 86 85 84 85 86 88 87 90
97 90 80 84 96 91 95 96 85 90 94 97 100 92 96 90 93 96 91 88 88 92 88 91 76 74 75 76 78 82 84 88 91 88 89 89 85 85 86 86 87 88 92 92
88 94 98 83 87 75 83 90 88 99 94 97 93 94 95 99 99 99 95 94 96 98 97 95 87 78 81 83 82 83 83 89 88 92 96 96 94 93 89 88 88 90 88 86
82 93 95 78 80 78 98 87 78 97 98 96 98 96 95 98 99 97 99 99 99 97 97 95 95 94 90 91 87 86 85 87 85 86 89 91 92 90 95 95 95 94 95 94
81 93 89 90 82 97 98 95 88 97 98 97 95 97 89 93 96 98 98 99 100 100 97 96 97 97 96 96 93 88 86 84 85 84 86 90 89 90 93 91 91 91 92 94
82 98 99 95 91 92 93 91 96 97 91 97 93 97 100 97 99 99 99 96 95 94 94 95 96 98 98 97 96 91 86 84 83 86 88 88 88 83 85 91 91 91 93 92
80 98 97 99 89 88 90 84 96 97 91 99 97 100 99 97 97 93 93 95 96 95 96 96 95 95 97 98 97 92 88 86 83 84 89 87 86 89 92 88 89 87 87 89
80 90 93 99 93 98 91 91 94 90 90 87 97 86 96 98 97 91 89 90 95 91 89 94 96 97 97 96 96 91 87 84 83 88 88 91 90 92 93 90 90 92 91 90
88 92 97 99 90 92 73 93 86 92 88 89 86 94 86 93 90 73 76 77 76 85 87 89 90 90 91 93 94 92 87 87 88 88 90 93 95 96 95 94 95 94 93 95
76 87 92 97 98 79 83 94 96 95 86 83 84 87 90 93 91 75 69 74 75 80 82 85 86 82 82 84 86 86 88 90 91 94 93 95 96 95 92 94 96 93 91 91
80 88 89 98 100 98 69 89 82 79 91 87 86 91 93 74 89 72 72 74 75 76 84 89 88 85 88 90 86 84 88 88 92 93 93 92 93 94 92 92 91 89 88 86
96 94 97 100 100 84 68 89 85 90 66 90 87 88 77 67 63 67 73 80 79 77 88 90 91 92 94 91 90 88 88 92 91 92 90 92 92 91 86 84 87 85 86 86
94 96 97 91 98 74 89 94 81 69 89 86 88 81 77 68 76 78 76 77 78 80 87 91 92 94 95 91 88 89 91 92 93 94 93 94 95 92 93 90 90 90 89 89
66 65 84 82 74 60 85 76 82 81 83 82 82 79 79 74 78 78 79 81 80 78 89 93 97 96 95 95 95 94 96 96 95 94 96 95 95 94 94 91 88 86 88 90
70 76 90 71 60 67 82 82 81 82 78 77 78 80 82 77 77 77 79 81 84 90 94 98 99 99 97 96 95 97 96 96 96 96 97 96 90 91 92 90 85 91 91 91
74 83 82 82 71 74 65 81 75 82 80 78 79 80 81 80 78 79 83 85 86 93 96 98 97 99 98 97 97 98 97 97 97 97 98 97 92 92 92 94 90 85 87 86
85 75 62 46 47 36 25 45 76 78 83 80 81 82 80 80 79 84 89 92 94 95 97 100 97 98 97 97 97 97 98 99 98 99 96 91 88 87 91 89 96 80 76 76

GFSCGP_sfc_rhum_237.txt.gz
RH
76 86 93 86 76 79 82 85 88 78 60 67 66 61 52 44 48 50 40 32 28 27 25 29 48 86 88 92 91 96 97 91 85 92 93 90 89 87 87 82 76 76 80 91
80 90 78 70 70 75 80 83 86 73 66 64 65 60 50 54 62 58 60 60 60 56 51 49 47 55 90 91 90 88 93 94 88 89 89 88 86 85 84 84 83 78 82 87
89 81 63 65 76 76 80 84 88 87 75 69 68 58 54 50 58 59 62 64 65 63 65 60 57 60 60 77 92 95 94 92 88 86 91 96 91 92 92 89 84 81 79 83
87 73 73 74 80 83 83 79 81 80 86 91 74 77 59 57 65 69 74 74 74 73 71 68 64 63 76 78 81 89 95 96 90 91 88 86 88 88 85 82 80 80 79 79
83 87 87 83 83 81 82 79 85 85 84 85 72 87 63 81 87 87 79 76 75 72 71 74 74 70 67 69 78 82 76 94 96 91 85 88 87 85 89 94 88 82 80 77
88 80 87 84 79 82 77 81 70 78 83 89 70 83 79 98 92 85 80 76 74 72 72 72 68 67 72 73 74 78 79 74 92 97 92 88 87 89 94 94 95 92 87 81
78 71 81 79 84 79 86 82 93 88 94 91 73 81 92 89 92 90 86 80 77 73 73 77 77 74 69 73 76 76 79 85 78 90 96 94 88 87 90 91 91 93 92 90
96 76 84 82 92 96 90 94 90 98 99 96 70 78 89 82 84 77 76 72 72 74 71 69 78 76 66 66 77 79 82 86 86 83 87 95 93 91 87 88 86 87 88 88
97 87 71 90 89 89 89 96 93 95 93 96 82 89 88 77 79 78 73 72 78 72 72 72 74 75 73 78 78 74 80 82 82 86 90 90 92 91 88 83 84 83 85 89
92 99 84 85 85 84 92 84 91 93 97 99 91 86 85 88 85 77 82 83 80 83 89 80 80 78 72 72 73 73 74 80 82 79 84 88 85 86 84 82 86 85 83 84
95 92 80 81 94 82 91 96 83 95 92 98 99 92 92 93 85 96 84 85 84 83 84 90 83 85 77 76 78 80 81 83 84 85 88 94 84 84 87 87 90 89 89 93
89 89 99 85 83 80 92 92 89 97 93 97 94 95 96 94 98 88 88 90 87 86 87 95 89 92 86 84 85 82 81 85 84 85 90 95 92 93 93 95 93 93 93 92
87 93 97 81 80 76 98 87 80 97 98 96 97 92 90 83 85 88 90 92 92 87 92 95 94 95 94 87 88 86 84 86 85 84 88 89 92 92 93 92 90 89 91 95
76 95 92 90 82 91 98 94 91 96 98 95 95 96 95 91 89 91 95 94 95 95 96 93 97 97 96 91 94 88 86 86 87 86 88 92 89 88 90 90 91 91 91 92
84 99 99 95 94 90 92 94 82 98 87 97 85 98 92 93 91 95 98 95 95 93 95 95 96 96 98 97 96 95 88 95 88 89 90 91 88 86 86 88 88 90 91 93
82 89 97 95 89 84 91 81 82 94 94 94 99 98 87 92 92 99 91 94 96 96 95 96 96 96 96 97 97 90 97 93 85 90 92 88 88 87 89 90 90 88 89 89
78 94 98 99 93 93 80 89 86 89 92 83 95 84 97 95 94 95 88 89 93 92 93 94 94 96 96 96 94 95 87 85 84 88 89 90 90 92 92 90 90 91 91 88
88 92 98 99 88 74 70 93 88 88 89 87 90 94 91 87 91 82 75 80 79 80 87 88 85 82 88 92 94 92 90 87 89 89 92 94 93 93 93 92 92 90 87 90
80 89 98 100 100 72 83 90 94 93 82 83 84 87 87 90 89 87 73 76 80 79 83 89 90 89 85 84 88 89 90 91 93 93 93 95 94 93 91 91 91 90 88 91
82 87 92 97 99 69 63 87 86 82 88 83 80 86 91 94 93 74 79 78 79 79 86 90 88 86 87 89 87 85 88 88 92 94 95 94 91 87 88 89 90 91 90 88
88 87 95 100 98 83 60 89 83 86 56 86 80 85 91 87 74 65 78 81 79 78 88 90 91 94 95 91 90 89 90 92 92 93 92 93 93 92 91 91 88 90 88 87
94 95 99 100 100 65 85 90 79 63 87 85 87 86 86 76 73 79 79 79 79 80 87 89 90 94 94 90 89 90 92 92 94 95 95 95 95 93 91 90 89 89 90 90
68 62 80 74 67 52 84 80 80 78 82 86 86 85 80 77 76 80 81 82 81 79 90 93 96 96 96 95 96 96 96 96 96 96 98 97 95 93 93 92 92 92 90 91
72 72 90 76 66 63 72 80 85 83 79 81 82 81 82 77 76 78 82 84 84 89 95 98 100 100 96 96 95 98 96 96 97 99 96 89 88 94 93 84 86 88 91 90
73 80 80 81 67 73 60 70 74 83 82 80 80 80 81 80 79 79 84 85 86 92 96 98 99 100 95 97 96 99 97 97 98 97 93 90 87 88 96 93 92 89 88 83
83 72 60 45 47 33 24 38 60 82 82 82 82 83 82 82 81 82 85 87 90 93 96 99 97 99 96 97 97 97 99 100 100 96 91 92 90 90 92 94 95 79 76 76

GFSCGP_sfc_rhum_240.txt.gz
RH
76 84 92 88 80 80 82 87 88 80 64 67 67 67 70 65 69 74 74 72 69 63 56 55 54 63 73 86 95 97 96 95 95 96 96 94 92 86 85 85 80 85 89 95
82 93 84 71 73 77 79 84 89 77 68 69 72 62 68 69 75 76 78 78 75 71 65 63 62 63 71 74 77 84 91 96 94 93 96 97 94 90 81 86 80 76 85 94
90 83 72 70 85 86 87 87 90 88 78 74 71 69 62 65 72 70 72 74 73 74 71 68 66 70 72 77 78 76 74 92 94 89 91 99 99 100 98 95 88 80 79 88
87 77 77 78 84 89 83 84 87 84 87 85 77 84 72 75 77 76 77 78 78 76 71 70 69 69 70 78 81 79 76 74 93 91 94 94 91 96 97 93 92 88 83 84
86 88 93 85 89 86 84 86 88 88 90 81 72 84 73 90 90 84 80 78 79 77 75 75 72 69 66 66 79 82 78 76 74 93 91 93 93 90 94 98 98 98 90 84
81 76 90 88 85 86 81 75 62 72 80 91 73 81 88 88 88 88 82 79 71 73 72 71 67 69 71 64 66 76 75 77 77 79 89 92 93 93 97 96 96 97 98 92
75 74 77 85 89 80 86 81 89 82 92 90 74 82 88 88 93 91 89 76 78 75 74 72 71 72 74 71 72 72 75 80 80 83 80 88 91 91 94 93 94 96 96 96
97 74 80 83 93 96 93 96 93 82 100 96 71 82 92 84 84 81 80 78 76 75 72 75 72 72 76 75 74 77 76 78 77 80 85 82 87 91 89 89 89 90 91 90
98 85 70 90 93 89 86 96 91 93 91 91 83 91 83 84 85 75 78 75 75 75 77 81 75 72 74 74 77 76 77 76 79 81 83 86 88 93 92 87 92 90 92 90
90 94 84 78 81 81 92 87 88 94 98 99 90 83 88 86 85 82 79 79 80 78 79 80 83 77 79 76 75 76 76 79 82 81 83 82 82 88 90 90 90 89 87 88
87 92 80 79 91 85 84 92 84 88 87 96 99 86 91 85 85 87 79 79 81 81 79 83 82 78 82 78 78 81 80 82 83 83 83 87 90 89 85 91 91 94 92 91
88 87 97 85 82 72 86 90 90 93 87 97 96 89 81 82 80 80 80 79 87 91 88 87 85 82 85 87 83 81 80 84 84 82 85 86 90 92 93 95 94 93 93 94
88 88 93 76 78 78 98 83 83 97 91 97 98 88 94 86 86 81 88 86 94 92 92 91 86 90 88 93 89 85 84 85 84 83 87 88 90 92 93 93 91 90 91 90
74 96 84 86 80 89 96 96 92 96 98 94 95 92 89 96 88 91 93 95 95 95 94 94 94 91 93 95 94 88 86 87 83 86 87 91 92 91 90 90 90 90 88 90
82 93 100 97 93 94 87 92 90 90 84 96 84 99 89 91 90 92 95 98 94 93 94 95 95 96 96 95 95 90 91 97 83 87 90 92 91 90 89 89 89 87 88 88
85 84 98 92 91 91 90 80 76 82 84 95 94 87 85 84 95 94 97 94 94 95 95 95 94 93 97 97 96 90 94 93 86 91 92 91 91 91 92 91 88 87 88 87
80 94 96 74 96 94 87 93 87 82 92 87 95 84 97 97 94 96 95 90 92 91 91 94 95 95 95 96 94 94 89 89 86 89 94 95 94 93 91 86 87 87 87 85
90 92 98 98 88 65 68 93 86 90 90 87 91 91 91 87 87 90 84 81 80 84 84 86 91 92 93 92 93 93 89 90 89 90 92 92 91 90 88 87 88 88 86 89
81 89 98 100 97 69 71 92 95 92 75 80 80 84 86 89 92 89 90 78 78 77 85 90 91 91 92 94 91 84 87 90 91 94 94 94 94 91 90 92 92 92 90 90
83 82 88 98 98 57 46 85 87 83 84 78 73 82 89 94 91 74 86 80 79 78 86 88 87 87 90 92 89 85 88 88 93 94 96 94 94 93 94 93 93 92 90 85
86 83 98 98 97 77 49 89 86 78 50 83 78 84 91 93 78 66 84 83 81 81 88 89 90 91 95 92 89 89 91 93 93 94 94 94 93 94 92 91 90 90 88 87
93 94 99 98 100 56 74 89 80 61 81 82 85 86 84 82 80 82 81 81 81 86 91 89 89 91 93 90 88 91 94 94 96 96 96 95 95 93 90 94 93 91 91 91
76 65 81 72 66 45 85 79 79 78 77 84 85 85 82 86 78 80 80 83 83 83 90 92 94 96 96 96 97 97 97 97 97 98 93 94 94 95 95 94 90 88 90 90
74 71 89 76 59 57 62 74 84 82 80 80 84 84 84 81 79 81 82 84 85 89 95 97 98 99 95 96 95 97 97 97 100 95 91 92 90 96 95 95 90 89 90 89
72 74 78 80 65 74 55 64 54 76 84 80 82 80 81 80 82 80 83 85 86 89 96 98 99 100 93 96 97 98 98 98 99 93 94 91 90 91 97 96 98 92 88 86
78 72 60 43 44 28 22 32 54 66 81 80 82 83 82 82 80 82 84 85 87 90 95 99 98 99 95 96 96 98 100 99 97 96 95 91 89 90 96 98 95 80 76 74

GFSCGP_sfc_rhum_246.txt.gz
RH
56 50 64 63 58 54 55 56 54 52 48 50 55 56 55 49 47 48 46 47 47 48 48 49 47 44 48 52 55 57 66 72 84 95 98 99 97 95 90 86 84 94 93 90
51 65 61 61 58 56 55 59 59 54 52 45 52 56 55 52 54 53 52 50 50 48 47 50 48 46 48 51 54 56 58 67 72 86 96 96 97 96 90 88 86 88 85 83
64 64 58 57 62 61 64 67 67 69 58 51 49 46 47 54 49 48 50 49 49 52 54 52 53 50 49 53 56 58 58 61 65 71 87 96 98 99 98 96 93 85 89 86
68 63 63 60 69 69 66 68 71 72 65 55 48 47 44 53 51 48 51 52 54 55 52 51 55 55 53 56 58 60 60 59 57 66 79 94 91 94 95 94 94 90 87 92
73 72 72 64 73 71 67 68 64 67 65 59 52 55 41 55 51 51 52 56 56 56 57 54 54 57 52 55 58 61 61 60 59 62 67 79 91 93 83 94 95 96 90 85
59 56 72 68 70 68 64 59 50 51 60 82 60 57 43 49 62 55 53 56 58 59 60 52 52 55 55 56 57 59 60 60 59 62 64 67 76 88 96 98 97 97 95 95
58 57 58 71 66 62 68 72 87 82 84 73 51 58 48 62 62 61 61 59 56 57 56 55 58 60 59 62 62 60 62 63 61 62 64 66 69 74 83 90 94 96 97 97
85 78 62 66 76 85 77 67 86 86 77 63 51 58 55 60 59 58 58 56 54 54 52 56 60 65 63 65 66 65 66 68 67 66 67 67 68 73 75 83 86 90 92 92
87 78 56 71 73 81 86 89 76 86 81 80 49 43 63 66 62 57 58 52 51 54 56 57 60 63 64 65 69 70 71 70 71 72 71 70 68 68 73 73 82 85 86 89
88 87 78 59 65 64 76 70 80 79 90 80 62 54 45 64 57 57 57 52 53 55 56 57 57 66 66 65 70 71 73 75 74 74 72 72 72 71 71 72 79 88 88 91
100 88 88 72 89 79 68 75 65 68 73 84 86 49 58 62 58 64 58 55 57 59 59 60 60 65 69 67 73 77 78 82 79 79 78 80 80 78 79 77 70 77 91 91
75 86 82 87 73 59 68 71 74 74 81 79 79 59 66 68 66 66 62 60 61 62 61 62 64 67 72 74 74 77 77 84 81 79 82 85 83 84 87 88 89 87 92 91
70 82 74 78 83 76 91 70 70 80 82 85 87 63 71 71 84 72 73 77 79 69 67 67 67 71 75 78 78 78 78 83 82 80 84 85 88 88 90 90 89 91 89 88
64 87 75 41 62 71 98 93 75 85 86 75 75 87 80 92 96 94 99 100 100 99 95 83 81 81 80 82 80 78 77 81 81 81 84 87 88 88 88 87 88 89 84 85
66 77 94 85 72 71 74 80 88 95 75 86 78 87 81 88 90 99 98 95 100 100 100 98 96 95 91 92 92 81 76 86 79 86 87 88 86 83 85 87 88 89 84 82
71 69 91 93 83 89 91 82 90 87 87 90 87 89 73 69 77 96 100 100 100 96 100 100 99 93 90 91 92 78 95 81 73 86 90 87 85 88 92 90 87 88 89 85
66 74 79 63 76 85 86 75 78 81 79 79 88 85 65 82 73 82 79 78 95 70 60 77 75 91 90 88 83 80 73 74 70 77 90 91 95 96 94 90 82 89 94 96
71 78 86 77 83 50 73 69 64 80 83 78 76 80 64 63 59 61 56 56 64 62 59 57 60 60 68 74 86 79 75 73 82 78 84 82 78 89 98 95 90 80 83 82
62 57 83 79 83 54 40 60 81 76 64 66 71 60 55 58 64 53 53 55 55 58 58 62 60 62 59 62 68 70 75 83 86 85 82 84 84 85 82 87 84 82 80 82
65 57 63 92 60 55 24 58 64 60 56 50 55 56 57 64 60 37 48 60 63 58 56 60 63 64 63 62 64 67 76 76 83 86 84 78 79 83 87 84 83 80 76 76
89 88 90 90 79 65 28 68 65 63 33 49 54 52 60 60 42 38 62 68 63 58 62 63 64 61 64 72 76 77 79 81 85 86 84 85 77 80 78 80 80 80 80 80
83 92 93 93 87 61 41 79 56 33 55 54 60 58 62 54 55 53 60 65 63 62 69 69 66 66 66 74 75 75 76 83 89 87 88 90 91 83 83 89 87 87 85 87
74 57 73 61 56 34 58 60 57 57 49 59 59 61 59 63 55 49 58 62 61 62 69 76 78 83 82 86 86 85 87 91 96 90 95 92 92 92 90 89 88 84 86 84
68 62 69 70 56 43 41 43 58 64 61 57 60 61 64 62 56 52 54 57 61 75 83 87 89 90 90 88 89 87 90 96 92 93 91 89 90 90 89 83 80 85 84 84
60 66 80 76 59 54 48 46 36 40 59 65 62 61 64 62 60 54 62 70 70 76 85 89 90 89 89 89 90 93 93 98 94 92 89 90 86 88 87 85 83 82 82 82
65 66 53 40 41 29 22 32 38 44 46 53 62 72 79 76 70 72 72 70 73 80 84 88 89 89 89 91 91 94 95 98 93 90 87 83 82 81 76 82 88 76 77 77

GFSCGP_sfc_rhum_252.txt.gz
RH
50 61 69 62 54 48 49 51 52 46 43 52 53 53 51 48 50 50 49 51 50 48 43 44 46 48 50 51 55 55 63 64 80 89 97 98 97 97 97 96 91 87 82 76
57 71 54 48 48 53 55 63 64 51 48 51 51 52 50 48 53 50 52 54 53 52 48 45 47 50 50 51 53 57 58 63 64 73 79 90 96 98 96 95 96 94 94 96
73 58 44 46 55 58 62 74 72 68 56 52 55 55 53 51 45 46 47 50 51 54 55 52 52 53 52 56 60 60 62 63 62 64 72 80 90 98 99 99 98 95 93 95
67 52 54 54 54 61 70 61 61 62 73 86 55 82 53 54 49 49 52 55 58 56 53 53 57 58 56 57 61 62 63 63 59 64 70 75 87 94 95 97 97 95 90 92
77 70 72 64 63 60 64 60 62 62 72 75 68 80 60 48 51 54 56 56 56 54 52 56 60 59 58 61 63 66 64 65 65 67 66 71 77 82 84 88 98 97 96 93
65 60 65 69 62 60 59 64 61 60 73 94 72 71 66 63 59 56 53 53 53 53 52 52 53 57 64 66 67 70 68 68 67 69 70 68 70 75 83 83 90 96 97 96
84 62 59 60 74 64 68 87 96 96 97 91 56 70 63 61 58 59 60 53 49 50 54 56 57 65 67 70 70 66 68 71 67 71 73 74 73 72 75 81 86 87 94 98
90 83 68 60 79 82 80 77 97 99 98 89 59 68 74 57 57 58 55 52 43 50 52 56 56 64 73 70 73 73 71 73 70 69 70 72 76 75 70 70 77 82 87 91
94 92 62 59 62 68 84 91 72 80 90 98 72 61 62 65 59 56 56 52 48 52 53 54 55 64 75 74 74 72 74 74 75 75 74 75 71 74 78 78 74 76 81 86
87 92 88 65 70 70 78 65 92 93 96 95 83 74 73 78 58 51 57 49 50 53 54 55 57 61 71 66 68 69 71 76 78 77 76 76 78 78 77 75 82 84 78 82
98 93 92 81 94 81 83 88 69 68 83 96 95 88 61 58 60 68 62 51 58 63 60 58 59 61 66 70 70 74 77 79 82 82 80 81 81 81 81 83 85 87 93 95
86 94 95 92 83 59 64 73 69 93 96 86 94 87 62 66 69 70 69 59 64 67 64 63 63 65 72 79 70 72 72 82 83 81 81 84 83 84 87 87 87 86 86 88
70 91 89 87 86 78 88 70 65 76 83 88 93 88 71 68 75 77 78 82 89 79 81 79 77 81 84 89 85 71 73 82 83 82 84 85 88 88 89 87 86 85 86 86
65 95 88 76 76 77 96 93 77 85 97 89 86 82 79 87 90 87 94 99 100 97 98 97 91 92 92 92 90 79 73 77 80 83 85 89 90 90 90 88 88 88 85 86
68 95 88 86 76 72 76 81 91 92 80 90 85 91 76 79 84 87 86 99 99 99 98 98 99 99 97 95 89 86 85 87 78 86 87 89 90 87 89 90 90 88 87 85
67 89 91 91 87 92 95 82 84 89 89 89 83 84 63 74 88 99 94 98 98 98 99 99 98 98 96 96 96 86 89 84 82 84 87 87 89 89 91 91 92 89 88 84
79 88 88 80 82 85 76 78 80 88 86 81 89 76 78 84 74 84 84 94 92 84 82 97 92 94 95 96 91 91 84 84 79 85 86 91 93 93 92 93 90 94 95 94
70 84 92 92 87 57 64 70 63 80 85 76 76 79 78 70 63 63 66 77 78 73 62 60 69 77 86 85 92 85 86 87 89 80 80 86 87 91 92 90 90 89 92 94
66 69 95 82 95 59 70 77 81 74 57 65 71 62 66 64 68 66 57 58 60 67 67 67 67 64 68 74 75 81 85 90 92 94 92 86 92 91 90 90 90 94 94 93
69 68 87 94 78 55 50 59 56 64 76 57 60 66 66 66 71 58 63 59 57 66 69 74 74 72 72 75 76 84 86 88 94 95 94 90 90 90 94 93 95 92 90 87
91 93 95 92 92 72 58 62 64 51 34 59 56 59 62 70 58 54 65 64 67 73 72 76 75 76 76 81 83 86 87 90 94 95 94 95 91 91 91 92 92 92 93 91
91 94 97 94 95 63 71 77 54 43 66 68 67 58 60 62 61 59 62 75 80 78 79 81 81 83 85 86 84 85 85 92 98 96 97 98 97 95 94 96 97 96 96 97
75 74 83 72 65 47 65 63 63 69 65 70 71 67 61 65 67 58 61 75 83 82 84 83 84 87 91 92 92 90 92 96 96 97 98 98 98 97 96 97 97 97 96 97
69 61 77 66 55 49 55 54 56 63 70 66 69 71 72 68 68 70 60 72 82 84 85 89 89 89 90 92 92 92 94 96 97 97 98 97 98 98 96 97 97 97 97 97
77 67 79 78 60 51 46 55 46 46 51 70 72 67 70 73 72 70 71 73 80 84 90 89 86 88 86 91 92 95 95 97 96 95 95 97 97 97 97 97 96 98 97 94
72 69 62 57 48 43 44 48 51 54 53 47 63 71 76 76 77 75 78 77 79 83 88 91 89 88 87 90 90 94 95 96 95 92 91 95 97 98 98 98 98 75 79 76

GFSCGP_sfc_rhum_255.txt.gz
RH
58 74 85 74 64 64 68 71 73 61 50 56 60 62 59 58 58 62 62 65 63 59 54 51 53 56 54 58 60 67 77 81 79 93 97 97 99 99 99 99 93 92 83 85
71 84 64 54 59 66 68 79 82 63 53 58 62 62 60 57 61 62 60 65 66 62 58 57 57 56 56 59 60 62 62 65 69 77 83 92 94 97 98 98 96 92 90 88
79 68 56 55 71 72 78 85 86 81 67 62 69 68 66 57 55 56 57 58 62 62 63 65 65 63 60 64 65 64 65 65 66 68 72 78 86 95 98 99 99 95 91 91
78 65 67 66 71 73 83 73 70 73 84 92 61 87 71 65 61 61 65 65 66 61 60 63 68 68 67 66 66 67 68 68 62 68 73 74 84 89 90 89 94 97 93 91
80 77 80 75 77 71 73 67 76 73 77 81 72 84 69 63 69 70 71 64 64 62 60 61 64 65 68 69 70 70 70 74 70 72 74 78 76 80 84 86 86 92 97 94
73 66 74 76 71 73 66 78 75 73 81 94 73 77 75 68 67 68 66 61 60 61 62 61 59 66 73 72 74 73 72 74 72 76 75 78 81 78 81 85 89 90 94 97
82 68 69 68 80 70 80 86 94 83 93 92 60 73 61 69 68 68 70 62 59 62 62 64 64 78 75 78 80 72 75 74 73 72 74 78 80 82 79 78 85 87 89 96
75 47 71 64 84 91 89 87 90 83 99 91 69 70 58 66 62 60 58 57 54 60 60 62 63 75 82 78 80 81 81 80 78 76 74 74 76 82 81 79 79 82 87 88
83 85 70 66 70 75 82 91 74 88 95 96 84 62 68 70 65 63 63 52 61 62 62 63 64 69 82 82 71 72 75 75 76 76 76 76 76 78 80 82 82 81 82 83
93 62 88 70 74 75 77 70 84 90 90 94 86 80 75 75 66 63 65 60 66 68 66 64 67 70 76 80 70 69 72 78 79 79 78 78 78 79 80 82 81 89 92 87
93 79 77 85 92 86 88 92 77 76 88 96 99 77 70 62 70 77 78 61 74 79 73 70 71 73 81 83 70 72 74 80 83 82 81 82 82 81 82 84 84 86 87 89
90 94 86 88 90 67 73 83 77 92 90 95 94 86 64 68 71 72 73 67 75 79 78 79 80 83 90 93 87 73 75 82 83 82 82 84 83 84 86 87 86 85 87 86
78 86 70 52 71 82 91 79 73 83 90 95 94 81 74 77 76 73 79 80 88 87 86 89 87 90 92 94 94 84 76 79 82 83 85 86 88 89 90 89 88 86 86 87
70 95 64 43 51 84 94 96 82 80 98 92 90 78 74 78 88 83 85 97 98 99 97 96 98 91 92 94 94 94 88 89 83 83 85 91 91 91 91 89 89 88 86 88
75 80 96 90 83 74 80 88 91 90 79 85 72 94 72 78 81 82 93 96 99 98 96 95 98 98 99 95 95 91 88 91 81 83 87 89 90 88 90 91 91 88 88 86
74 83 93 76 91 95 96 81 85 91 95 90 83 83 64 70 88 95 96 98 98 97 95 96 98 98 96 97 97 89 95 91 89 92 89 87 88 89 92 90 91 91 89 86
83 89 85 55 87 85 59 73 82 87 86 83 90 76 74 82 78 83 80 92 96 89 89 98 98 97 93 96 90 92 91 90 88 91 92 92 94 94 93 92 88 93 95 94
78 86 92 76 78 34 50 68 66 78 84 77 74 74 75 72 71 69 72 74 79 79 79 84 86 88 89 90 94 90 90 92 92 93 92 89 88 93 93 94 90 91 92 94
69 79 90 65 89 53 61 80 77 61 41 64 68 58 68 71 73 66 64 69 70 76 76 73 75 80 82 84 84 88 92 93 93 95 94 91 92 94 94 95 96 95 96 91
70 74 76 90 45 51 33 56 61 62 52 49 61 64 70 71 70 58 62 69 69 70 74 75 74 75 79 82 84 86 89 90 94 95 94 92 91 93 95 95 95 94 93 90
94 92 90 98 89 66 47 60 65 39 24 62 64 63 73 72 60 52 71 72 71 79 78 79 79 77 79 83 86 86 90 89 93 96 96 96 93 93 94 94 94 95 95 93
90 94 97 96 90 62 71 75 49 30 65 55 58 63 68 69 69 59 68 73 80 78 81 84 84 82 85 86 86 85 87 91 98 97 98 99 98 95 94 96 98 97 96 97
79 70 80 70 62 52 67 49 62 67 58 69 71 64 63 67 69 60 59 68 82 82 84 85 85 87 92 91 90 89 91 97 98 97 99 99 99 98 98 98 98 98 97 98
72 66 81 67 64 58 59 58 65 64 66 62 63 64 69 67 68 72 68 70 78 87 87 89 89 89 87 92 91 88 93 96 96 98 98 99 98 98 98 98 98 98 98 98
76 70 78 76 63 60 52 56 50 51 56 60 68 63 66 72 71 72 77 77 79 84 91 89 86 84 83 89 90 93 94 96 97 97 98 99 99 98 99 98 97 98 97 94
76 68 62 56 48 43 44 47 51 57 54 52 56 64 73 75 70 76 79 81 81 83 88 90 87 85 84 88 88 91 94 94 94 97 97 97 98 98 98 98 98 82 81 77